Location: Ferchesar
(52.6477°N, 12.4298°E)
Time: 21:31:47
(UTC+01:00)

TIGRISAT - Pass Details

Date: 22 October 2021
Orbit: 603 x 689 km, 97.7° (Epoch: 30 November)

Event Time Altitude Azimuth Distance (km) Brightness Sun altitude
Rises 20:38:42 0° 12° (NNE) 3,001 ? -24.6°
Reaches altitude 10° 20:40:58 10° 11° (NNE) 2,071 ? -25.0°
Maximum altitude 20:45:28 76° 287° (WNW) 666 ? -25.6°
Drops below altitude 10° 20:49:49 10° 202° (SSW) 2,002 ? -26.3°
Sets 20:51:59 0° 201° (SSW) 2,892 ? -26.6°
